This demonstration page uses our WeatherBlox Daily Observations layout. Learn more.

Left ArrowRight Arrow

41.12389, -100.76542

Hourly Observations for September 5, 2017

Temp ( °F °C ) Dew Point ( °F °C ) Humidity (%) Winds ( mph kmh ) Pressure ( in mb ) Visibility ( mi km ) Precip ( " mm )
12:53 am 00:53 Clear 52 11.1 45 7.2 77 77 Calm 30.25 1024 10 16 0.00 0.00
1:53 am 01:53 Cloudy 52 11.1 47 8.3 83 83 NW 3 6 30.26 1025 10 16 0.00 0.00
2:53 am 02:53 Mostly Clear 51 10.6 45 7.2 80 80 Calm 30.26 1025 10 16 0.00 0.00
3:53 am 03:53 Clear 50 10 45 7.2 83 83 NNW 8 13 30.27 1025 10 16 0.00 0.00
4:53 am 04:53 Partly Cloudy 47 8.3 43 6.1 86 86 WNW 8 13 30.29 1026 10 16 0.00 0.00
5:53 am 05:53 Mostly Cloudy 45 7.2 42 5.6 90 90 WNW 6 9 30.30 1026 10 16 0.00 0.00
6:53 am 06:53 Partly Cloudy 44 6.7 41 5 89 89 NNW 6 9 30.31 1027 10 16 0.00 0.00
7:53 am 07:53 Sunny 45 7.2 42 5.6 90 90 NW 6 9 30.34 1028 10 16 0.00 0.00
8:53 am 08:53 Sunny 51 10.6 41 5 69 69 WNW 9 15 30.35 1028 10 16 0.00 0.00
9:53 am 09:53 Sunny 59 15 42 5.6 54 54 NW 7 11 30.34 1027 10 16 0.00 0.00
10:53 am 10:53 Sunny 65 18.3 40 4.4 40 40 NW 7 11 30.33 1027 10 16 0.00 0.00
11:53 am 11:53 Sunny 68 20 38 3.3 33 33 NNW 10 17 30.32 1027 10 16 0.00 0.00
12:53 pm 12:53 Sunny 70 21.1 37 2.8 30 30 NNW 14 22 30.29 1026 10 16 0.00 0.00
1:53 pm 13:53 Sunny 71 21.7 37 2.8 29 29 N 16 26 30.27 1025 10 16 0.00 0.00
2:53 pm 14:53 Sunny 72 22.2 37 2.8 28 28 N 9 15 30.25 1025 10 16 0.00 0.00
3:53 pm 15:53 Sunny 72 22.2 36 2.2 27 27 N 12 19 30.23 1024 10 16 0.00 0.00
4:53 pm 16:53 Sunny 73 22.8 35 1.7 25 25 NNW 13 20 30.21 1023 10 16 0.00 0.00
5:53 pm 17:53 Sunny 72 22.2 36 2.2 27 27 NNW 12 19 30.20 1023 10 16 0.00 0.00
6:53 pm 18:53 Sunny 70 21.1 35 1.7 28 28 NNE 9 15 30.21 1023 10 16 0.00 0.00
7:53 pm 19:53 Sunny 63 17.2 36 2.2 37 37 N 7 11 30.22 1023 10 16 0.00 0.00
8:53 pm 20:53 Clear 56 13.3 35 1.7 46 46 N 6 9 30.23 1024 10 16 0.00 0.00
9:53 pm 21:53 Clear 52 11.1 37 2.8 57 57 Calm 30.24 1024 10 16 0.00 0.00
10:53 pm 22:53 Clear 48 8.9 39 3.9 71 71 Calm 30.24 1024 10 16 0.00 0.00
11:53 pm 23:53 Clear 45 7.2 39 3.9 80 80 Calm 30.24 1024 10 16 0.00 0.00

Powered by AerisWeather